Terminal Aerodrome Forecast
Issued by NWS Boston, MA

Home | Current Version | Previous Version | Text Only | Print | Product List | Glossary On
Versions: 1 2 3 4 5 6 7 8 9 10 11 12 13 14 15 16 17 18 19 20 21 22 23 24 25 26 27 28 29 30 31 32 33 34 35 36 37 38 39 40 41
000
FTUS41 KBOX 031738
TAFBDL
TAF
KBDL 031738Z 0318/0424 35006KT P6SM SCT040 SCT250
     FM032000 36005KT P6SM VCTS BKN050CB BKN250
     FM032300 35004KT P6SM BKN050
     FM040800 02005KT 5SM BR BKN025
     FM041200 02009KT P6SM BKN025
     FM041400 03008KT P6SM BKN040
     FM041700 04009KT P6SM SCT050 SCT250=

USA.gov is the U.S. government's official web portal to all federal, state and local government web resources and services.